Lapse_Rate
5.0 5.0 5.0 5.0 4.9 4.9 4.7 4.8 4.8 4.7 4.6 4.4 4.3 4.2 4.1 4.0 4.1 4.1 4.2 4.3 4.4 4.5 4.6 4.6 4.8 5.0 5.0 5.3 5.3 5.7 6.0 6.3 6.3 6.2 6.0 5.6 6.1 6.2 6.2 5.8 5.5 5.6 5.5 4.8 5.6 5.7 5.8
4.9 4.9 4.9 4.8 4.7 4.6 4.6 4.6 4.6 4.6 4.5 4.3 4.2 4.1 4.0 4.0 4.1 4.1 4.1 4.2 4.2 4.3 4.4 4.6 4.7 4.9 5.0 4.9 5.4 6.1 5.9 6.2 6.4 6.2 6.1 6.2 6.1 6.2 6.1 5.8 5.6 5.7 5.0 5.7 5.6 5.6 5.6
4.8 4.7 4.7 4.6 4.6 4.6 4.6 4.6 4.5 4.5 4.4 4.2 4.1 4.0 3.9 3.9 4.0 4.1 4.2 4.1 4.2 4.3 4.6 4.8 5.0 5.2 5.2 4.8 5.4 6.2 6.1 6.4 6.5 6.4 6.5 6.2 5.7 6.4 5.8 5.2 5.7 5.6 5.5 5.2 5.2 5.4 5.8
4.7 4.6 4.6 4.5 4.5 4.5 4.6 4.6 4.7 4.7 4.5 4.3 4.1 4.0 3.8 3.8 3.9 4.0 4.1 4.2 4.3 4.6 5.0 5.3 5.6 5.6 5.7 5.4 5.7 6.6 6.2 6.5 6.6 6.7 6.6 6.0 6.2 6.5 6.2 6.0 6.0 5.5 5.4 5.3 5.0 5.3 5.4
4.6 4.6 4.6 4.6 4.7 4.7 4.8 4.9 4.9 4.7 4.4 4.2 4.0 3.9 3.8 3.9 4.0 4.0 4.0 4.2 4.5 4.8 5.5 5.8 5.9 5.9 5.7 6.0 5.9 6.3 6.5 6.9 6.7 6.9 7.0 6.3 6.1 6.6 6.5 6.6 6.0 5.5 5.5 5.2 5.3 5.4 5.6
4.9 4.9 4.9 4.9 4.8 4.8 4.9 5.0 4.6 4.5 4.3 4.3 4.0 4.0 4.0 4.2 4.3 4.2 4.2 4.7 5.1 5.6 5.6 5.8 5.9 6.3 6.3 6.4 6.6 6.7 6.6 6.8 6.8 6.9 6.8 6.7 6.7 7.0 7.0 6.7 6.7 6.1 5.8 5.9 5.2 5.5 5.6
5.0 4.9 4.8 4.7 4.6 4.8 4.9 4.8 4.6 4.5 4.4 4.3 4.2 4.3 4.4 4.5 4.5 4.6 4.7 5.2 5.5 5.8 6.1 6.2 6.3 6.2 6.3 6.4 6.5 6.6 6.8 6.1 6.5 6.6 7.1 7.1 7.1 7.7 7.6 7.1 6.6 6.4 6.3 5.9 6.1 5.8 4.9
5.0 4.9 4.8 4.6 4.6 4.6 4.7 4.7 4.6 4.4 4.5 4.5 4.5 4.7 4.9 4.9 5.1 5.2 5.1 5.4 5.4 5.9 6.5 6.8 7.0 7.1 6.7 6.7 6.8 6.8 6.7 6.6 6.5 6.7 6.9 7.1 7.8 7.9 7.5 7.0 6.6 6.2 5.7 5.5 5.3 5.6 5.2
4.9 4.9 4.7 4.7 4.7 4.7 4.9 4.8 4.6 4.6 4.7 4.7 4.8 5.0 5.2 5.5 5.6 5.3 5.4 5.7 6.0 6.3 6.8 7.2 7.4 7.3 7.1 7.1 7.1 7.2 7.0 6.9 6.8 6.8 7.0 7.5 8.1 7.8 7.4 6.9 7.1 6.8 6.4 5.6 5.6 5.4 5.0
5.0 5.0 4.9 4.8 4.8 4.9 5.0 4.9 4.8 4.8 5.0 4.9 5.2 5.3 5.5 5.8 5.7 5.6 5.9 6.1 6.2 6.5 7.1 7.5 7.5 7.6 7.7 7.5 7.6 7.3 7.4 7.4 7.2 7.4 7.5 7.5 8.2 7.9 7.8 7.4 7.0 7.2 6.9 6.5 5.7 5.8 5.2
5.1 5.1 5.1 5.2 5.2 5.1 5.2 5.1 5.0 5.0 5.1 5.2 5.4 5.6 5.8 5.8 5.8 5.8 6.3 6.6 6.5 6.5 6.5 7.8 7.8 8.2 8.3 8.2 8.0 8.1 7.7 7.4 7.8 7.4 7.3 8.0 8.6 8.7 8.6 7.8 7.4 7.8 7.3 6.9 5.8 6.1 5.5
5.2 5.2 5.4 5.5 5.5 5.3 5.4 5.2 5.1 5.1 5.2 5.4 5.5 5.9 6.1 6.1 6.2 6.2 6.5 6.8 7.0 7.2 7.8 8.5 8.6 8.9 8.7 8.7 8.4 8.4 8.2 8.2 8.0 7.6 7.6 7.8 8.4 8.6 8.8 8.8 7.6 8.1 7.4 6.9 5.9 5.7 5.5
5.3 5.4 5.6 5.7 5.7 5.6 5.6 5.4 5.3 5.3 5.3 5.5 5.6 6.0 6.1 6.1 6.0 6.2 6.7 7.1 7.6 7.6 8.4 8.8 9.0 9.0 9.2 8.8 8.7 8.6 8.4 8.1 8.2 8.0 8.2 8.3 8.8 9.0 8.9 7.8 7.8 7.8 7.4 6.1 5.6 5.7 5.8
5.3 5.4 5.7 5.8 5.7 5.8 5.9 5.6 5.5 5.4 5.5 5.5 5.7 6.2 6.3 6.1 6.2 6.4 6.7 7.3 7.5 7.9 8.2 9.0 9.4 9.1 9.2 9.0 9.0 8.8 9.1 8.5 8.9 8.5 8.3 8.5 9.0 8.7 8.4 8.7 8.4 7.7 7.9 6.9 6.2 6.1 6.6
5.3 5.5 5.7 5.8 5.8 5.9 6.1 5.9 5.6 5.5 5.6 5.7 5.8 6.3 6.4 6.4 6.5 6.6 6.9 7.2 7.5 8.0 8.4 8.9 9.2 9.0 9.1 9.2 8.9 9.0 9.0 9.0 8.9 9.1 8.6 8.6 8.7 9.2 8.9 8.7 8.5 7.6 7.9 8.4 7.8 7.3 7.0
5.4 5.4 5.7 5.8 5.9 5.9 6.1 6.0 5.8 5.7 5.8 5.9 6.1 6.4 6.6 6.6 6.8 7.0 7.1 7.4 7.4 7.9 8.2 8.6 8.8 8.7 8.5 8.8 8.9 9.0 8.7 9.0 8.9 8.5 8.7 8.8 8.7 9.0 9.1 9.2 8.7 8.7 8.7 7.9 7.7 6.6 6.8
5.5 5.5 5.6 5.8 6.0 6.1 6.0 6.1 6.0 5.8 5.9 6.1 6.3 6.6 6.8 6.7 6.8 7.0 7.4 7.2 7.7 8.1 8.3 8.7 8.8 8.7 8.4 8.5 8.8 9.0 8.6 8.8 8.8 9.0 8.5 8.7 8.3 8.8 9.0 9.0 8.9 8.8 8.8 8.8 8.5 8.4 6.8
5.5 5.6 5.6 5.7 5.9 6.1 6.1 6.1 6.0 5.8 5.6 5.9 6.3 7.0 7.3 7.0 7.1 7.2 7.5 7.4 7.8 8.3 8.1 8.2 8.5 8.1 8.8 8.7 8.6 8.8 8.5 8.8 8.6 8.7 8.6 8.4 8.6 8.7 8.7 8.5 9.0 9.3 9.1 9.1 8.8 8.8 8.5
5.4 5.5 5.6 5.8 5.8 6.0 6.1 6.1 6.1 6.1 5.8 5.9 6.3 6.7 6.9 7.1 6.9 7.2 7.5 7.8 7.9 8.0 8.1 8.2 8.2 8.4 8.2 8.3 8.6 8.5 8.4 8.6 8.7 8.6 8.7 8.4 8.2 8.3 9.0 9.2 9.2 8.9 8.4 8.6 8.8 8.8 8.7
5.4 5.4 5.5 5.7 5.7 6.0 6.1 6.1 6.2 6.3 6.1 6.0 6.3 6.7 7.0 7.2 7.1 7.3 7.9 8.0 8.0 7.9 7.9 7.8 7.8 7.8 8.0 8.1 8.3 8.2 8.5 8.3 8.5 8.6 8.4 8.3 7.8 7.9 8.0 8.2 8.2 8.7 8.4 8.3 8.3 8.3 7.9
5.3 5.4 5.4 5.6 5.8 5.8 6.0 5.9 6.1 6.4 6.2 6.1 6.2 6.4 6.6 7.4 7.6 7.8 8.1 8.4 7.8 7.6 7.7 8.0 7.8 7.7 8.0 7.9 8.1 8.5 8.3 8.1 8.0 8.1 8.4 8.3 8.2 7.8 7.8 8.2 8.3 8.4 8.2 8.4 8.4 7.6 7.9
5.2 5.3 5.4 5.5 5.7 5.9 6.0 6.0 5.9 6.2 6.4 6.2 6.3 6.5 6.8 7.5 7.5 7.8 7.8 8.1 7.9 8.0 8.1 7.8 7.9 7.8 7.7 7.3 7.4 7.8 8.0 8.3 8.2 8.1 8.3 8.3 8.5 8.1 8.1 8.1 8.3 8.1 8.3 8.2 8.1 8.0 8.1
5.0 5.1 5.3 5.5 5.6 5.7 6.0 6.0 5.9 6.0 6.2 6.3 6.3 6.2 6.8 7.1 7.8 8.1 7.9 7.6 8.0 8.5 8.0 7.8 7.6 7.8 7.8 7.8 7.4 7.6 8.3 8.3 8.1 8.1 8.2 8.4 8.1 8.4 8.5 8.3 8.7 8.2 7.9 7.7 7.6 7.7 7.4
4.9 5.0 5.2 5.4 5.6 5.6 5.7 6.0 6.0 5.8 5.9 6.2 6.2 6.1 6.7 7.3 7.4 7.6 7.7 7.8 7.9 7.9 7.8 7.8 7.7 7.7 7.6 7.6 7.8 7.9 8.0 8.0 8.1 8.0 8.0 8.0 8.3 8.3 8.3 8.4 7.9 7.1 7.2 7.5 7.3 7.0 6.8
5.1 5.2 5.2 5.2 5.5 5.6 5.4 5.7 5.9 5.8 5.7 5.9 6.2 6.1 6.6 7.2 7.1 7.6 8.0 7.8 7.7 7.9 7.6 7.8 7.8 7.8 7.8 7.8 7.8 7.9 8.0 7.9 8.0 7.9 7.9 8.1 8.0 8.0 8.1 8.4 8.0 7.9 7.6 7.2 7.3 7.0 6.5
5.1 5.3 5.2 5.1 5.2 5.6 5.5 5.4 5.9 5.9 5.7 5.7 6.0 6.1 6.5 6.9 6.8 7.3 7.4 7.7 8.0 7.9 7.9 7.9 7.7 7.8 7.8 7.8 7.8 7.8 7.9 7.8 7.9 7.8 7.8 7.9 8.1 8.1 7.7 7.4 7.5 7.4 7.7 7.1 6.8 6.6 6.4
5.2 5.2 5.3 5.2 5.3 5.5 5.6 5.5 5.7 5.8 5.8 5.7 5.8 6.0 6.2 6.7 6.8 6.7 7.2 7.5 7.8 8.0 7.9 7.6 7.6 7.8 7.8 8.0 8.1 8.0 7.6 7.8 7.5 7.7 7.5 7.4 7.6 8.0 7.9 7.3 7.6 7.8 7.6 7.4 7.3 6.7 6.7
5.5 5.4 5.5 5.6 5.6 5.7 5.7 5.7 5.7 5.9 5.8 5.6 5.6 6.1 6.2 6.7 7.2 6.8 7.0 7.3 7.8 7.9 7.9 7.8 7.8 7.5 7.6 7.9 8.1 8.0 7.7 7.9 7.9 7.9 7.5 7.6 7.4 7.1 7.2 7.5 7.5 7.9 8.1 8.0 7.5 6.9 6.9
5.8 5.9 5.9 5.8 5.8 5.9 5.9 5.7 5.8 6.0 6.0 5.9 5.9 6.2 6.4 6.8 7.5 6.9 7.2 7.9 7.7 7.4 7.3 7.4 7.5 7.6 7.7 7.8 7.9 8.0 8.1 7.9 7.9 7.9 7.7 7.6 7.7 7.6 7.4 7.5 7.6 7.6 7.7 7.6 7.8 7.4 7.1
Wind_Speed
18 17 17 16 16 16 16 15 15 13 12 12 12 13 14 14 14 14 14 13 12 12 11 10 10 11 3 1 8 4 8 18 8 6 6 4 3 4 4 3 7 7 14 13 9 10 8
19 18 18 17 16 16 16 16 15 14 14 14 13 13 13 14 15 15 15 14 13 12 11 10 9 10 1 2 3 14 10 7 5 6 6 7 7 1 6 4 3 8 13 13 9 10 8
17 18 18 17 16 16 16 16 16 16 15 15 15 14 14 15 15 15 15 15 14 12 10 8 6 3 2 11 4 6 8 8 6 6 6 8 3 2 10 3 7 12 7 5 4 2 5
19 18 18 18 17 17 17 17 17 17 17 16 16 16 15 15 16 17 17 16 14 11 8 6 4 2 6 7 7 7 6 2 5 6 5 2 5 5 5 6 4 5 5 4 4 4 4
18 18 18 18 17 18 18 18 18 18 18 18 18 18 17 17 17 18 22 19 15 9 6 4 1 1 9 13 3 6 10 6 5 5 6 9 1 6 1 5 4 5 4 4 2 7 5
19 18 18 18 18 18 18 18 19 20 19 19 19 19 19 18 17 18 26 20 3 4 3 5 5 3 4 4 4 5 5 5 5 2 3 3 2 1 3 4 3 5 5 2 4 3 4
19 19 19 19 19 20 19 19 19 20 20 19 19 20 20 19 18 16 11 3 3 2 2 8 5 4 8 4 5 4 6 7 4 3 4 3 3 5 4 3 1 9 7 5 4 1 4
19 19 20 19 19 19 19 19 19 20 20 20 20 20 20 19 18 16 2 1 7 3 7 11 11 7 10 7 1 4 4 4 6 6 4 4 6 9 5 8 14 8 12 3 3 4 2
19 19 20 19 20 19 19 20 19 20 20 21 21 21 21 21 22 2 4 7 6 9 2 8 5 5 6 4 3 6 7 5 2 2 4 7 7 9 10 13 12 10 7 5 3 5 5
19 19 20 20 20 19 19 19 20 20 21 21 20 20 21 25 3 4 5 6 8 6 4 6 2 4 4 4 3 8 8 5 2 10 7 6 14 10 12 11 14 6 9 13 7 2 3
21 20 22 21 21 21 20 20 20 20 21 22 21 19 17 9 4 2 7 9 7 4 4 3 3 3 5 5 2 3 6 4 6 6 1 10 5 6 7 16 11 6 13 12 6 4 2
20 20 20 21 23 23 22 22 22 21 22 23 21 17 13 2 2 8 15 9 4 5 2 5 1 2 0 2 4 7 5 3 3 5 6 10 6 5 7 17 9 18 13 11 5 3 2
21 20 21 22 23 24 24 24 24 25 24 25 20 14 4 4 4 11 8 4 5 4 4 4 5 2 2 3 3 5 5 3 3 4 5 8 5 4 16 17 8 15 6 3 0 1 5
20 22 22 22 23 24 26 26 28 28 27 28 24 15 9 6 9 8 5 5 5 4 4 7 3 5 2 2 4 3 4 1 4 3 2 2 7 12 4 12 14 14 6 6 4 2 2
21 22 22 23 23 24 25 27 31 33 30 32 22 1 2 5 9 3 5 4 3 2 5 7 5 7 6 6 2 3 2 1 4 5 5 1 5 3 9 7 14 6 5 7 6 2 3
21 22 23 23 24 24 25 26 30 35 37 26 2 2 4 8 17 5 4 4 3 2 4 6 4 4 5 6 7 4 2 2 4 3 4 3 2 2 7 8 10 12 7 3 2 5 4
22 22 23 23 24 24 25 26 28 34 39 15 2 4 5 10 5 4 2 5 1 2 1 2 3 1 1 3 1 1 5 3 4 6 5 1 3 8 3 1 9 1 1 3 4 4 5
20 21 22 23 24 24 24 25 27 30 39 7 3 3 4 5 3 1 2 5 3 5 6 6 7 3 2 6 5 2 2 1 6 3 3 2 4 2 6 7 4 3 2 4 5 5 2
20 21 22 23 23 23 23 24 26 26 20 4 2 3 5 5 2 2 6 3 3 3 4 5 5 4 6 5 3 4 5 7 3 3 2 5 3 4 9 7 9 6 6 4 2 2 3
20 21 22 23 23 23 23 24 26 25 18 1 2 3 4 4 1 2 3 2 1 2 3 2 3 7 6 5 4 2 7 5 5 2 2 6 3 6 5 7 2 4 9 5 4 3 3
18 21 22 21 22 23 23 24 27 29 29 4 2 4 3 4 5 1 1 2 7 2 5 8 6 5 2 6 7 6 4 7 7 5 4 4 2 2 9 9 3 1 5 13 5 5 5
17 19 20 21 22 22 22 23 25 31 28 2 1 2 4 3 4 8 2 2 6 3 3 3 5 4 6 5 2 2 4 3 2 9 2 4 1 2 1 7 7 1 14 13 9 6 6
16 17 19 19 20 21 21 21 22 27 19 3 3 4 3 5 6 5 3 5 3 4 4 4 4 3 5 3 2 4 4 5 3 3 4 4 2 3 4 4 4 7 6 12 12 11 3
16 15 17 18 19 20 20 19 18 18 13 1 3 2 2 4 3 2 6 3 8 5 5 4 3 4 5 3 2 5 7 9 11 10 4 2 3 2 3 4 2 1 8 17 18 13 7
15 15 15 17 18 18 19 18 17 15 13 1 3 1 1 3 2 6 17 4 4 2 3 4 2 5 2 5 4 5 5 6 7 6 8 4 4 3 3 1 2 3 6 4 3 7 7
15 14 13 15 16 17 18 17 16 15 15 1 3 3 1 1 4 3 6 4 3 1 6 2 2 3 5 3 3 3 1 2 4 8 4 5 6 5 3 2 5 4 8 9 2 3 5
16 13 13 14 16 16 17 16 15 14 13 2 4 3 0 2 4 4 3 2 3 3 2 3 5 4 4 2 2 3 2 2 1 1 1 4 3 4 4 1 4 2 11 9 3 5 1
16 12 12 14 16 16 15 15 14 13 12 4 5 8 1 2 5 2 6 4 4 3 3 4 4 5 4 4 3 1 3 3 1 2 5 5 3 2 1 4 6 1 5 5 4 3 4
14 12 12 14 14 15 14 14 12 12 10 7 3 5 2 3 5 3 6 9 3 6 5 2 6 3 4 4 1 3 2 2 3 2 1 2 5 5 5 5 3 3 2 2 4 7 5
Wind_Direction
24 22 18 18 13 8 6 1 357 353 349 345 342 340 336 336 334 331 326 322 320 319 319 320 322 328 359 342 251 218 100 150 140 148 184 187 209 220 225 224 113 114 179 205 264 274 274
22 16 15 12 11 7 1 355 352 351 347 341 338 337 337 335 334 331 328 324 318 313 312 314 317 326 222 310 254 144 134 131 172 162 174 184 218 321 254 177 209 140 175 185 196 258 250
20 16 10 8 9 5 356 352 353 351 344 340 337 337 334 335 337 330 325 318 310 306 300 298 305 299 295 235 355 119 150 182 176 178 177 212 242 291 343 102 64 127 144 145 231 348 301
18 13 9 9 6 1 358 354 356 349 341 339 340 336 333 334 332 328 319 312 304 297 291 273 282 302 249 258 212 240 188 214 181 217 233 224 195 270 230 132 57 50 91 165 222 282 273
16 13 7 7 4 1 357 353 352 346 342 340 339 332 333 331 333 328 316 307 293 281 258 219 194 159 274 304 213 197 161 182 191 232 257 262 8 210 191 124 88 23 336 314 35 22 351
14 13 7 6 1 359 355 351 348 341 339 337 335 332 330 328 333 330 320 307 237 302 195 191 256 313 262 231 210 207 193 148 187 159 335 222 182 143 43 82 193 156 195 196 150 35 18
13 9 6 3 359 356 352 350 346 336 334 334 332 329 328 327 333 339 351 11 21 26 241 208 207 236 275 285 108 205 193 151 216 95 171 244 85 222 228 183 160 124 129 105 15 85 143
9 8 5 360 357 355 351 349 340 335 333 332 330 327 326 327 325 323 313 210 213 149 311 227 238 251 272 271 143 282 112 141 143 193 184 14 222 219 163 136 110 72 86 7 77 151 144
6 8 4 3 358 354 346 341 339 337 333 332 328 333 329 323 317 301 198 235 286 51 344 297 200 197 234 117 226 244 143 141 150 214 201 180 230 187 153 141 124 124 130 206 174 115 68
6 6 1 360 352 348 346 343 340 338 332 328 327 335 332 324 313 340 255 256 278 136 49 283 269 262 151 152 297 217 198 136 211 206 219 223 251 207 187 176 137 162 158 145 160 152 119
359 0 359 353 348 347 346 343 341 337 328 323 319 322 333 340 296 285 250 348 310 68 31 305 254 203 125 148 243 268 171 109 242 265 110 254 264 219 180 176 141 180 160 145 151 69 127
359 357 352 351 349 347 345 342 340 332 324 317 316 320 327 131 234 245 316 315 44 48 358 314 257 226 62 243 257 179 173 137 182 253 248 243 239 193 213 145 125 123 117 70 37 28 298
359 357 352 351 349 347 345 343 338 332 324 315 314 314 287 290 236 11 334 30 41 92 333 276 232 266 247 277 62 151 193 135 175 14 8 330 287 37 106 81 60 118 97 81 325 250 236
355 355 352 349 350 348 346 344 338 334 329 320 316 299 216 228 266 13 14 45 50 253 251 271 340 26 357 108 273 180 119 186 269 130 307 249 329 146 203 154 164 181 157 135 196 183 246
353 353 351 350 350 348 348 348 340 335 336 331 319 87 242 252 197 128 60 46 236 333 306 342 34 41 344 351 60 16 187 103 284 164 182 283 277 342 179 142 140 228 222 168 122 313 125
352 352 351 350 349 349 348 351 344 338 337 341 17 9 262 237 137 72 71 253 262 46 350 36 92 45 355 329 17 37 12 31 339 89 218 315 279 255 298 118 227 156 164 87 17 159 225
348 349 349 348 349 350 349 351 350 344 338 339 22 16 258 122 91 62 177 244 234 328 36 7 97 283 39 273 357 324 10 308 34 339 39 71 93 300 1 83 176 275 14 75 127 159 167
343 345 346 347 347 350 350 350 352 354 347 39 5 353 263 72 61 211 233 206 66 22 21 30 57 93 345 12 353 62 10 273 348 14 8 308 129 308 260 289 292 148 151 141 126 271 181
340 342 343 344 345 347 350 351 351 355 17 330 357 257 303 111 228 251 274 250 127 44 35 36 23 40 29 30 42 15 332 299 351 71 69 328 21 5 347 351 13 42 356 3 154 85 221
338 341 342 342 344 345 349 351 349 346 350 132 29 346 320 27 150 238 266 338 154 101 94 99 9 40 51 43 8 343 354 320 337 91 137 82 23 146 185 237 213 332 333 345 84 59 305
337 341 342 342 342 345 348 351 348 346 344 143 126 250 207 293 315 124 351 34 51 83 48 23 40 67 60 26 1 7 338 341 349 2 42 84 102 114 301 269 263 181 8 12 34 245 163
330 335 339 339 341 343 347 351 351 353 351 13 76 37 337 270 309 355 3 44 105 46 87 353 98 45 59 76 302 349 2 37 308 335 13 2 184 108 257 305 314 332 52 56 18 17 32
324 325 333 334 337 340 345 350 356 5 4 11 313 333 104 294 336 23 267 159 130 110 352 48 131 80 38 323 208 252 248 75 30 40 20 47 58 42 289 302 72 48 66 83 70 33 23
314 319 327 330 330 335 340 346 354 8 33 252 266 322 33 286 342 324 299 126 126 138 157 296 94 110 226 318 351 11 68 80 64 31 44 90 77 74 258 10 75 353 36 93 83 53 60
297 307 316 325 327 329 332 337 343 355 1 161 282 341 357 293 327 317 347 116 123 71 200 194 209 192 165 46 43 23 357 15 9 18 23 66 101 45 46 306 199 66 15 334 339 42 356
284 293 301 316 323 324 326 328 333 343 353 312 255 211 279 126 250 332 335 328 89 29 2 1 334 213 88 86 73 103 58 235 333 343 359 15 81 109 64 319 197 249 289 317 191 44 337
277 285 296 302 315 317 319 322 324 333 345 323 275 275 230 227 273 13 280 233 110 84 106 342 332 335 80 84 71 118 209 211 209 196 350 345 355 114 131 138 265 255 298 296 100 209 5
272 280 292 300 308 311 311 315 317 323 336 1 270 269 183 285 283 285 343 347 32 69 117 269 38 353 30 64 95 136 137 231 186 219 153 182 132 237 50 121 260 212 299 116 190 1 95
265 277 289 299 301 303 306 308 304 315 328 345 286 308 311 203 249 254 258 249 167 185 149 8 172 217 190 89 77 128 123 127 184 244 126 227 181 178 185 215 230 272 210 159 179 142 156